Vertical_Velocity
-1 -0 -1 4 0 2 2 1 0 0 0 0 2 -0 1 0 -0 -1 -1 2 1 7
1 1 -1 -0 1 -1 8 1 -1 -3 1 2 -0 -2 0 -0 -1 1 3 -2 -4 1
0 1 -3 3 2 2 -0 0 3 0 1 -0 -0 0 2 -1 -0 -1 3 -1 -1 0
0 -0 0 1 2 4 1 -0 -1 -1 -0 1 0 -1 -1 0 -2 -1 -3 -1 -1 9
-2 -1 -1 -4 -0 -1 -1 1 -1 -1 -1 -2 -2 -1 -2 -2 -3 -2 -2 0 3 -1
2 2 -0 -1 -1 -1 0 1 -2 -3 -1 -3 -3 -3 -1 0 -1 -2 -5 0 0 2
-4 -5 2 2 0 2 1 -0 2 -1 -3 -1 0 1 -2 -1 -2 -2 -2 -0 0 1
-1 -1 -4 -0 -0 0 1 -1 -1 -1 -1 -2 -2 0 -0 -2 -3 -1 -2 -4 0 -1
-1 -1 -2 -2 -2 -0 -1 -1 -2 -0 1 -2 -3 -2 -0 -2 -1 -0 0 1 -1 -1
-2 -1 -0 -1 -2 -0 -0 -1 1 1 -0 3 3 1 -2 -1 -1 -2 -3 -2 -0 1
-1 -1 -2 -1 -1 0 -1 -1 -1 -3 0 0 1 5 3 3 1 -2 -2 -1 -4 0
-0 0 -1 0 -4 -3 -3 -1 -1 1 -1 -2 -5 -2 -1 1 1 2 -2 -2 -1 -2
-2 1 -2 -1 -1 -1 1 -1 -1 -1 1 1 0 1 0 -1 -0 -2 -0 3 -1 -3
0 2 -2 -0 3 7 4 -0 -1 -5 -0 4 4 1 2 -2 -3 3 1 -7 0 -2
Height
5883 5883 5883 5882 5882 5884 5884 5884 5883 5883 5884 5885 5884 5885 5886 5885 5886 5889 5891 5893 5894 5895
5881 5881 5880 5881 5880 5880 5880 5880 5879 5880 5881 5880 5880 5882 5883 5882 5884 5886 5888 5889 5889 5891
5878 5878 5878 5878 5878 5878 5877 5877 5877 5877 5877 5878 5878 5878 5879 5880 5881 5883 5883 5885 5886 5887
5876 5875 5875 5876 5875 5875 5875 5874 5875 5875 5875 5875 5875 5875 5875 5876 5878 5879 5880 5881 5881 5883
5873 5872 5872 5873 5873 5872 5873 5873 5873 5874 5873 5873 5872 5873 5873 5872 5872 5874 5875 5876 5877 5878
5871 5871 5870 5870 5870 5870 5871 5871 5872 5871 5871 5870 5870 5870 5869 5869 5868 5869 5870 5871 5872 5874
5869 5869 5869 5869 5867 5867 5867 5867 5868 5868 5868 5868 5869 5869 5867 5866 5865 5864 5865 5865 5866 5868
5867 5867 5866 5865 5865 5865 5865 5864 5864 5864 5864 5865 5866 5866 5865 5865 5863 5862 5861 5861 5862 5862
5867 5866 5864 5864 5863 5862 5862 5861 5861 5861 5862 5862 5863 5863 5861 5861 5860 5860 5860 5859 5858 5857
5866 5864 5863 5862 5861 5860 5859 5858 5858 5858 5858 5858 5859 5858 5857 5855 5855 5854 5855 5855 5854 5853
5865 5863 5861 5860 5859 5858 5857 5855 5854 5854 5854 5855 5854 5854 5855 5854 5853 5851 5850 5850 5850 5850
5861 5859 5858 5857 5856 5854 5853 5853 5852 5850 5850 5849 5849 5849 5849 5850 5851 5851 5848 5845 5845 5845
5856 5854 5854 5853 5852 5849 5847 5846 5845 5844 5844 5843 5843 5843 5843 5843 5843 5845 5847 5846 5842 5840
5849 5848 5847 5845 5842 5840 5839 5838 5838 5838 5836 5836 5835 5834 5835 5834 5834 5836 5840 5840 5840 5837